| time (UTC) | temp F | wind direction | speed MPH | gust MPH | rain 1hr in | rain 24hr in | rain mn in | humidity % | barometer mb |
| 20260506042522 | 40 | 324 | 2.0 | 6.0 | 0.00 | 0.00 | 0.00 | 55 | 1012.8 |
| 20260506042016 | 40 | 265 | 2.0 | 6.0 | 0.00 | 0.00 | 0.00 | 55 | 1012.7 |
| 20260506041535 | 40 | 250 | 1.0 | 9.0 | 0.00 | 0.00 | 0.00 | 55 | 1012.7 |
| 20260506041016 | 41 | 286 | 2.0 | 9.0 | 0.00 | 0.00 | 0.00 | 55 | 1012.7 |
| 20260506040516 | 41 | 280 | 2.0 | 7.0 | 0.00 | 0.00 | 0.00 | 55 | 1012.7 |
| 20260506040039 | 41 | 285 | 2.0 | 5.0 | 0.00 | 0.00 | 0.00 | 54 | 1012.6 |
| 20260506035517 | 41 | 276 | 0.0 | 6.0 | 0.00 | 0.00 | 0.00 | 54 | 1012.7 |
| 20260506035017 | 41 | 276 | 2.0 | 6.0 | 0.00 | 0.00 | 0.00 | 54 | 1012.6 |
| 20260506034531 | 41 | 273 | 2.0 | 6.0 | 0.00 | 0.00 | 0.00 | 54 | 1012.5 |
| 20260506034016 | 42 | 286 | 1.0 | 7.0 | 0.00 | 0.00 | 0.00 | 54 | 1012.5 |
| 20260506033516 | 42 | 0 | 2.0 | 7.0 | 0.00 | 0.00 | 0.00 | 53 | 1012.5 |
| 20260506033035 | 42 | 302 | 2.0 | 9.0 | 0.00 | 0.00 | 0.00 | 53 | 1012.5 |
| 20260506032516 | 42 | 300 | 3.0 | 9.0 | 0.00 | 0.00 | 0.00 | 52 | 1012.5 |
| 20260506032016 | 42 | 331 | 3.0 | 8.0 | 0.00 | 0.00 | 0.00 | 52 | 1012.4 |
| 20260506031535 | 42 | 316 | 2.0 | 8.0 | 0.00 | 0.00 | 0.00 | 52 | 1012.5 |
| 20260506031018 | 43 | 315 | 3.0 | 7.0 | 0.00 | 0.00 | 0.00 | 52 | 1012.4 |
| 20260506030522 | 43 | 0 | 2.0 | 7.0 | 0.00 | 0.00 | 0.00 | 51 | 1012.4 |
| 20260506030033 | 43 | 286 | 2.0 | 7.0 | 0.00 | 0.00 | 0.00 | 51 | 1012.3 |
| 20260506025517 | 43 | 281 | 2.0 | 7.0 | 0.00 | 0.00 | 0.00 | 50 | 1012.2 |
| 20260506025017 | 44 | 293 | 1.0 | 7.0 | 0.00 | 0.00 | 0.00 | 50 | 1012.1 |
| 20260506024534 | 44 | 342 | 1.0 | 11.0 | 0.00 | 0.00 | 0.00 | 51 | 1012.0 |
| 20260506024019 | 44 | 332 | 2.0 | 11.0 | 0.00 | 0.00 | 0.00 | 50 | 1011.9 |
| 20260506023519 | 44 | 338 | 2.0 | 9.0 | 0.00 | 0.00 | 0.00 | 49 | 1011.9 |
| 20260506023044 | 44 | 305 | 2.0 | 11.0 | 0.00 | 0.00 | 0.00 | 49 | 1011.9 |
| 20260506022516 | 44 | 324 | 4.0 | 11.0 | 0.00 | 0.00 | 0.00 | 49 | 1011.8 |
| 20260506022017 | 44 | 286 | 4.0 | 10.0 | 0.00 | 0.00 | 0.00 | 49 | 1011.7 |
| 20260506021535 | 44 | 330 | 2.0 | 6.0 | 0.00 | 0.00 | 0.00 | 49 | 1011.5 |
| 20260506021017 | 45 | 0 | 1.0 | 5.0 | 0.00 | 0.00 | 0.00 | 48 | 1011.5 |
| 20260506020516 | 45 | 315 | 1.0 | 5.0 | 0.00 | 0.00 | 0.00 | 48 | 1011.2 |
| 20260506020035 | 45 | 0 | 1.0 | 8.0 | 0.00 | 0.00 | 0.00 | 48 | 1011.2 |
| 20260506015516 | 45 | 338 | 1.0 | 9.0 | 0.00 | 0.00 | 0.00 | 47 | 1011.2 |
| 20260506015021 | 46 | 333 | 2.0 | 9.0 | 0.00 | 0.00 | 0.00 | 47 | 1011.1 |
| 20260506014534 | 46 | 280 | 1.0 | 7.0 | 0.00 | 0.00 | 0.00 | 46 | 1011.0 |
| 20260506014016 | 46 | 0 | 0.0 | 9.0 | 0.00 | 0.00 | 0.00 | 45 | 1010.9 |
| 20260506013516 | 46 | 294 | 3.0 | 9.0 | 0.00 | 0.00 | 0.00 | 44 | 1010.9 |
| 20260506013032 | 47 | 269 | 2.0 | 9.0 | 0.00 | 0.00 | 0.00 | 44 | 1010.8 |
| 20260506012516 | 47 | 269 | 2.0 | 9.0 | 0.00 | 0.00 | 0.00 | 44 | 1010.8 |
| 20260506012017 | 47 | 313 | 2.0 | 9.0 | 0.00 | 0.00 | 0.00 | 43 | 1010.7 |
| 20260506011536 | 47 | 288 | 3.0 | 9.0 | 0.00 | 0.00 | 0.00 | 43 | 1010.7 |
| 20260506011018 | 48 | 276 | 2.0 | 7.0 | 0.00 | 0.00 | 0.00 | 43 | 1010.6 |
| 20260506010518 | 48 | 0 | 2.0 | 7.0 | 0.00 | 0.00 | 0.00 | 43 | 1010.6 |
| 20260506010045 | 48 | 285 | 2.0 | 6.0 | 0.00 | 0.00 | 0.00 | 42 | 1010.5 |
| 20260506005517 | 48 | 251 | 3.0 | 11.0 | 0.00 | 0.00 | 0.00 | 41 | 1010.6 |
| 20260506005018 | 49 | 280 | 4.0 | 11.0 | 0.00 | 0.00 | 0.00 | 40 | 1010.4 |
| 20260506004532 | 49 | 272 | 3.0 | 11.0 | 0.00 | 0.00 | 0.00 | 41 | 1010.4 |
| 20260506004019 | 49 | 0 | 1.0 | 10.0 | 0.00 | 0.00 | 0.00 | 41 | 1010.3 |
| 20260506003547 | 49 | 311 | 3.0 | 10.0 | 0.00 | 0.00 | 0.00 | 41 | 1010.3 |
| 20260506003034 | 50 | 242 | 3.0 | 9.0 | 0.00 | 0.00 | 0.00 | 41 | 1010.2 |
| 20260506002515 | 50 | 286 | 4.0 | 10.0 | 0.00 | 0.00 | 0.00 | 40 | 1010.2 |
| 20260506002016 | 50 | 275 | 2.0 | 13.0 | 0.00 | 0.00 | 0.00 | 42 | 1010.1 |
| 20260506001532 | 50 | 275 | 4.0 | 13.0 | 0.00 | 0.00 | 0.00 | 39 | 1010.2 |
| 20260506001018 | 50 | 300 | 3.0 | 11.0 | 0.00 | 0.00 | 0.00 | 40 | 1010.1 |
| 20260506000516 | 50 | 255 | 6.0 | 11.0 | 0.00 | 0.00 | 0.00 | 41 | 1010.1 |
| 20260506000032 | 50 | 232 | 5.0 | 12.0 | 0.00 | 0.00 | 0.00 | 40 | 1010.1 |
| 20260505235518 | 50 | 269 | 5.0 | 16.0 | 0.00 | 0.00 | 0.00 | 39 | 1010.1 |
| 20260505235020 | 50 | 308 | 5.0 | 16.0 | 0.00 | 0.00 | 0.00 | 39 | 1010.1 |
| 20260505234555 | 50 | 272 | 3.0 | 9.0 | 0.00 | 0.00 | 0.00 | 40 | 1010.0 |
| 20260505234017 | 50 | 291 | 4.0 | 11.0 | 0.00 | 0.00 | 0.00 | 39 | 1010.1 |
| 20260505233516 | 50 | 295 | 5.0 | 14.0 | 0.00 | 0.00 | 0.00 | 39 | 1010.1 |
| 20260505233038 | 50 | 214 | 4.0 | 15.0 | 0.00 | 0.00 | 0.00 | 39 | 1010.1 |
| 20260505232514 | 50 | 269 | 7.0 | 15.0 | 0.00 | 0.00 | 0.00 | 38 | 1010.1 |
| 20260505232015 | 50 | 258 | 6.0 | 14.0 | 0.00 | 0.00 | 0.00 | 40 | 1010.2 |
| 20260505231535 | 50 | 284 | 3.0 | 12.0 | 0.00 | 0.00 | 0.00 | 39 | 1010.1 |
| 20260505231018 | 50 | 293 | 5.0 | 12.0 | 0.00 | 0.00 | 0.00 | 38 | 1010.1 |
| 20260505230518 | 50 | 342 | 4.0 | 18.0 | 0.00 | 0.00 | 0.00 | 39 | 1010.2 |
| 20260505230036 | 51 | 243 | 5.0 | 18.0 | 0.00 | 0.00 | 0.00 | 38 | 1010.2 |
| 20260505225518 | 51 | 272 | 7.0 | 18.0 | 0.00 | 0.00 | 0.00 | 41 | 1010.1 |
| 20260505225016 | 51 | 288 | 3.0 | 10.0 | 0.00 | 0.00 | 0.00 | 41 | 1010.3 |
| 20260505224536 | 51 | 282 | 5.0 | 13.0 | 0.00 | 0.00 | 0.00 | 38 | 1010.2 |
| 20260505224016 | 51 | 285 | 5.0 | 14.0 | 0.00 | 0.00 | 0.00 | 38 | 1010.1 |
| 20260505223523 | 51 | 342 | 6.0 | 16.0 | 0.00 | 0.00 | 0.00 | 39 | 1010.1 |
| 20260505223034 | 51 | 279 | 5.0 | 16.0 | 0.00 | 0.00 | 0.00 | 40 | 1010.1 |
| 20260505222518 | 51 | 330 | 7.0 | 16.0 | 0.00 | 0.00 | 0.00 | 39 | 1010.1 |
| 20260505222017 | 51 | 268 | 3.0 | 9.0 | 0.00 | 0.00 | 0.00 | 40 | 1010.1 |
| 20260505221535 | 51 | 239 | 3.0 | 12.0 | 0.00 | 0.00 | 0.00 | 38 | 1010.1 |
| 20260505221022 | 51 | 237 | 3.0 | 15.0 | 0.00 | 0.00 | 0.00 | 39 | 1010.0 |
| 20260505220518 | 51 | 275 | 7.0 | 16.0 | 0.00 | 0.00 | 0.00 | 37 | 1010.0 |
| 20260505220041 | 51 | 219 | 9.0 | 18.0 | 0.00 | 0.00 | 0.00 | 38 | 1010.0 |
| 20260505215518 | 52 | 292 | 9.0 | 18.0 | 0.00 | 0.00 | 0.00 | 37 | 1010.0 |
| 20260505215015 | 52 | 271 | 8.0 | 15.0 | 0.00 | 0.00 | 0.00 | 38 | 1010.1 |
| 20260505214557 | 52 | 313 | 7.0 | 15.0 | 0.00 | 0.00 | 0.00 | 38 | 1010.1 |
| 20260505214018 | 51 | 238 | 4.0 | 14.0 | 0.00 | 0.00 | 0.00 | 39 | 1010.0 |
| 20260505213515 | 51 | 308 | 6.0 | 19.0 | 0.00 | 0.00 | 0.00 | 38 | 1010.1 |
| 20260505213036 | 51 | 292 | 8.0 | 19.0 | 0.00 | 0.00 | 0.00 | 37 | 1010.2 |
| 20260505212518 | 51 | 304 | 8.0 | 19.0 | 0.00 | 0.00 | 0.00 | 39 | 1010.2 |
| 20260505212018 | 52 | 284 | 9.0 | 17.0 | 0.00 | 0.00 | 0.00 | 37 | 1010.2 |
| 20260505211537 | 52 | 279 | 5.0 | 18.0 | 0.00 | 0.00 | 0.00 | 39 | 1010.2 |
| 20260505211021 | 52 | 259 | 7.0 | 18.0 | 0.00 | 0.00 | 0.00 | 38 | 1010.3 |
| 20260505210519 | 52 | 240 | 7.0 | 14.0 | 0.00 | 0.00 | 0.00 | 39 | 1010.4 |
| 20260505210037 | 52 | 296 | 7.0 | 14.0 | 0.00 | 0.00 | 0.00 | 38 | 1010.2 |
| 20260505205518 | 51 | 244 | 7.0 | 14.0 | 0.00 | 0.00 | 0.00 | 39 | 1010.2 |
| 20260505205018 | 51 | 1 | 5.0 | 15.0 | 0.00 | 0.00 | 0.00 | 38 | 1010.3 |
| 20260505204542 | 51 | 350 | 3.0 | 15.0 | 0.00 | 0.00 | 0.00 | 44 | 1010.3 |
| 20260505204022 | 51 | 263 | 6.0 | 18.0 | 0.00 | 0.00 | 0.00 | 39 | 1010.3 |
| 20260505203518 | 51 | 296 | 5.0 | 18.0 | 0.00 | 0.00 | 0.00 | 41 | 1010.3 |
| 20260505203037 | 51 | 260 | 6.0 | 18.0 | 0.00 | 0.00 | 0.00 | 40 | 1010.4 |
| 20260505202520 | 51 | 295 | 6.0 | 19.0 | 0.00 | 0.00 | 0.00 | 40 | 1010.4 |
| 20260505202020 | 51 | 328 | 4.0 | 19.0 | 0.00 | 0.00 | 0.00 | 40 | 1010.3 |
| 20260505201537 | 52 | 200 | 4.0 | 19.0 | 0.00 | 0.00 | 0.00 | 43 | 1010.3 |
| 20260505201018 | 52 | 197 | 4.0 | 16.0 | 0.00 | 0.00 | 0.00 | 40 | 1010.3 |
| 20260505200522 | 52 | 249 | 6.0 | 16.0 | 0.00 | 0.00 | 0.00 | 38 | 1010.5 |
| 20260505200032 | 52 | 341 | 2.0 | 17.0 | 0.00 | 0.00 | 0.00 | 36 | 1010.3 |
| 20260505195518 | 53 | 268 | 3.0 | 21.0 | 0.00 | 0.00 | 0.00 | 37 | 1010.3 |
| 20260505195019 | 52 | 255 | 7.0 | 21.0 | 0.00 | 0.00 | 0.00 | 38 | 1010.3 |
| 20260505194543 | 52 | 263 | 5.0 | 16.0 | 0.00 | 0.00 | 0.00 | 38 | 1010.3 |
| 20260505194020 | 52 | 263 | 7.0 | 16.0 | 0.00 | 0.00 | 0.00 | 36 | 1010.3 |
| 20260505193519 | 52 | 244 | 6.0 | 15.0 | 0.00 | 0.00 | 0.00 | 35 | 1010.3 |
| 20260505193035 | 52 | 269 | 6.0 | 19.0 | 0.00 | 0.00 | 0.00 | 38 | 1010.2 |
| 20260505192518 | 52 | 280 | 5.0 | 19.0 | 0.00 | 0.00 | 0.00 | 37 | 1010.3 |
| 20260505192021 | 52 | 222 | 6.0 | 18.0 | 0.00 | 0.00 | 0.00 | 38 | 1010.3 |
| 20260505191534 | 52 | 283 | 5.0 | 13.0 | 0.00 | 0.00 | 0.00 | 38 | 1010.3 |
| 20260505191018 | 52 | 234 | 6.0 | 14.0 | 0.00 | 0.00 | 0.00 | 41 | 1010.4 |
| 20260505190518 | 52 | 201 | 6.0 | 14.0 | 0.00 | 0.00 | 0.00 | 39 | 1010.3 |
| 20260505190037 | 51 | 248 | 8.0 | 15.0 | 0.00 | 0.00 | 0.00 | 38 | 1010.5 |
| 20260505185520 | 52 | 228 | 7.0 | 17.0 | 0.00 | 0.00 | 0.00 | 35 | 1010.5 |
| 20260505185020 | 52 | 271 | 5.0 | 17.0 | 0.00 | 0.00 | 0.00 | 38 | 1010.4 |
| 20260505184535 | 52 | 251 | 8.0 | 17.0 | 0.00 | 0.00 | 0.00 | 39 | 1010.4 |
| 20260505184018 | 51 | 271 | 7.0 | 17.0 | 0.00 | 0.00 | 0.00 | 36 | 1010.4 |
| 20260505183519 | 51 | 287 | 10.0 | 17.0 | 0.00 | 0.00 | 0.00 | 35 | 1010.6 |
| 20260505183036 | 51 | 268 | 5.0 | 13.0 | 0.00 | 0.00 | 0.00 | 37 | 1010.4 |
| 20260505182522 | 52 | 271 | 7.0 | 13.0 | 0.00 | 0.00 | 0.00 | 37 | 1010.4 |
| 20260505182018 | 51 | 278 | 6.0 | 17.0 | 0.00 | 0.00 | 0.00 | 37 | 1010.4 |
| 20260505181537 | 51 | 244 | 6.0 | 17.0 | 0.00 | 0.00 | 0.00 | 38 | 1010.4 |
| 20260505181115 | 51 | 296 | 3.0 | 15.0 | 0.00 | 0.00 | 0.00 | 39 | 1010.6 |
| 20260505180515 | 50 | 271 | 6.0 | 15.0 | 0.00 | 0.00 | 0.00 | 37 | 1010.6 |
| 20260505180056 | 51 | 355 | 6.0 | 14.0 | 0.00 | 0.00 | 0.00 | 37 | 1010.4 |
| 20260505175519 | 50 | 284 | 6.0 | 12.0 | 0.00 | 0.00 | 0.00 | 38 | 1010.6 |
| 20260505175020 | 50 | 251 | 3.0 | 11.0 | 0.00 | 0.00 | 0.00 | 39 | 1010.5 |
| 20260505174550 | 50 | 259 | 6.0 | 12.0 | 0.00 | 0.00 | 0.00 | 39 | 1010.7 |
| 20260505174016 | 50 | 255 | 5.0 | 12.0 | 0.00 | 0.00 | 0.00 | 36 | 1010.6 |
| 20260505173519 | 50 | 201 | 2.0 | 17.0 | 0.00 | 0.00 | 0.00 | 37 | 1010.7 |
| 20260505173037 | 50 | 290 | 7.0 | 17.0 | 0.00 | 0.00 | 0.00 | 36 | 1010.7 |
| 20260505172515 | 50 | 208 | 7.0 | 14.0 | 0.00 | 0.00 | 0.00 | 40 | 1010.7 |
| 20260505172015 | 50 | 279 | 5.0 | 15.0 | 0.00 | 0.00 | 0.00 | 37 | 1010.8 |
| 20260505171532 | 50 | 283 | 6.0 | 15.0 | 0.00 | 0.00 | 0.00 | 39 | 1010.6 |
| 20260505171017 | 50 | 296 | 6.0 | 15.0 | 0.00 | 0.00 | 0.00 | 41 | 1010.8 |
| 20260505170518 | 49 | 10 | 4.0 | 11.0 | 0.00 | 0.00 | 0.00 | 42 | 1010.8 |
| 20260505170031 | 48 | 256 | 5.0 | 11.0 | 0.00 | 0.00 | 0.00 | 44 | 1011.0 |
| 20260505165518 | 48 | 281 | 5.0 | 14.0 | 0.00 | 0.00 | 0.00 | 39 | 1010.9 |
| 20260505165018 | 48 | 311 | 6.0 | 14.0 | 0.00 | 0.00 | 0.00 | 39 | 1010.8 |
| 20260505164532 | 48 | 289 | 4.0 | 12.0 | 0.00 | 0.00 | 0.00 | 43 | 1010.9 |
| 20260505164018 | 47 | 340 | 3.0 | 11.0 | 0.00 | 0.00 | 0.00 | 42 | 1010.8 |
| 20260505163515 | 47 | 350 | 4.0 | 13.0 | 0.00 | 0.00 | 0.00 | 42 | 1010.9 |
| 20260505163034 | 47 | 287 | 3.0 | 13.0 | 0.00 | 0.00 | 0.00 | 41 | 1010.9 |
| 20260505162515 | 47 | 6 | 6.0 | 15.0 | 0.00 | 0.00 | 0.00 | 40 | 1010.8 |
| 20260505162018 | 48 | 317 | 8.0 | 18.0 | 0.00 | 0.00 | 0.00 | 40 | 1010.8 |
| 20260505161537 | 48 | 280 | 5.0 | 18.0 | 0.00 | 0.00 | 0.00 | 40 | 1010.7 |
| 20260505161019 | 48 | 288 | 5.0 | 15.0 | 0.00 | 0.00 | 0.00 | 40 | 1010.6 |
| 20260505160518 | 49 | 103 | 4.0 | 15.0 | 0.00 | 0.00 | 0.00 | 41 | 1010.6 |
| 20260505153040 | 48 | 272 | 8.0 | 20.0 | 0.00 | 0.00 | 0.00 | 41 | 1010.6 |
| 20260505152516 | 48 | 293 | 7.0 | 17.0 | 0.00 | 0.00 | 0.00 | 39 | 1010.7 |
| 20260505152019 | 48 | 240 | 8.0 | 15.0 | 0.00 | 0.00 | 0.00 | 39 | 1010.6 |
| 20260505151535 | 48 | 283 | 3.0 | 14.0 | 0.00 | 0.00 | 0.00 | 45 | 1010.6 |
| 20260505151015 | 48 | 256 | 4.0 | 13.0 | 0.00 | 0.00 | 0.00 | 44 | 1010.4 |
| 20260505150520 | 48 | 342 | 4.0 | 13.0 | 0.00 | 0.00 | 0.00 | 44 | 1010.3 |
| 20260505140516 | 46 | 276 | 6.0 | 12.0 | 0.00 | 0.00 | 0.00 | 40 | 1010.0 |
| 20260505125020 | 42 | 323 | 4.0 | 14.0 | 0.00 | 0.00 | 0.00 | 50 | 1009.6 |
| 20260505124538 | 42 | 284 | 6.0 | 14.0 | 0.00 | 0.00 | 0.00 | 51 | 1009.5 |
| 20260505124019 | 42 | 350 | 3.0 | 10.0 | 0.00 | 0.00 | 0.00 | 51 | 1009.4 |
| 20260505123518 | 42 | 278 | 3.0 | 9.0 | 0.00 | 0.00 | 0.00 | 54 | 1009.2 |
| 20260505123038 | 42 | 271 | 4.0 | 9.0 | 0.00 | 0.00 | 0.00 | 55 | 1009.1 |
| 20260505122516 | 41 | 297 | 2.0 | 10.0 | 0.00 | 0.00 | 0.00 | 55 | 1009.0 |
| 20260505122017 | 41 | 280 | 3.0 | 10.0 | 0.00 | 0.00 | 0.00 | 54 | 1008.9 |
| 20260505121533 | 41 | 283 | 1.0 | 9.0 | 0.00 | 0.00 | 0.00 | 57 | 1008.7 |
| 20260505121022 | 41 | 280 | 3.0 | 13.0 | 0.00 | 0.00 | 0.00 | 55 | 1008.7 |
| 20260505120518 | 41 | 269 | 5.0 | 13.0 | 0.00 | 0.00 | 0.00 | 55 | 1008.6 |
| 20260505120036 | 40 | 281 | 2.0 | 9.0 | 0.00 | 0.00 | 0.00 | 55 | 1008.6 |
| 20260505115517 | 40 | 274 | 3.0 | 9.0 | 0.00 | 0.00 | 0.00 | 56 | 1008.5 |
| 20260505115017 | 40 | 307 | 1.0 | 9.0 | 0.00 | 0.00 | 0.00 | 56 | 1008.3 |
| 20260505114531 | 40 | 273 | 2.0 | 8.0 | 0.00 | 0.00 | 0.00 | 57 | 1008.2 |
| 20260505114021 | 39 | 307 | 1.0 | 8.0 | 0.00 | 0.00 | 0.00 | 57 | 1008.1 |
| 20260505113519 | 39 | 307 | 2.0 | 9.0 | 0.00 | 0.00 | 0.00 | 57 | 1008.0 |
| 20260505113032 | 39 | 340 | 3.0 | 9.0 | 0.00 | 0.00 | 0.00 | 58 | 1008.0 |
| 20260505112517 | 39 | 276 | 3.0 | 9.0 | 0.00 | 0.00 | 0.00 | 59 | 1008.0 |
| 20260505112018 | 38 | 301 | 3.0 | 8.0 | 0.00 | 0.00 | 0.00 | 59 | 1007.9 |
| 20260505111536 | 38 | 285 | 2.0 | 11.0 | 0.00 | 0.00 | 0.00 | 60 | 1008.0 |
| 20260505111017 | 38 | 292 | 3.0 | 11.0 | 0.00 | 0.00 | 0.00 | 60 | 1007.8 |
| 20260505110517 | 38 | 3 | 4.0 | 11.0 | 0.00 | 0.00 | 0.00 | 60 | 1007.9 |
| 20260505102017 | 39 | 0 | 3.0 | 9.0 | 0.00 | 0.00 | 0.00 | 60 | 1007.7 |
| 20260505101537 | 39 | 0 | 4.0 | 9.0 | 0.00 | 0.00 | 0.00 | 61 | 1007.8 |
| 20260505101017 | 39 | 286 | 1.0 | 5.0 | 0.00 | 0.00 | 0.00 | 61 | 1007.8 |
| 20260505100518 | 39 | 314 | 1.0 | 8.0 | 0.00 | 0.00 | 0.00 | 61 | 1007.8 |
| 20260505100035 | 39 | 314 | 2.0 | 8.0 | 0.00 | 0.00 | 0.00 | 61 | 1007.7 |
| 20260505095517 | 40 | 0 | 2.0 | 8.0 | 0.00 | 0.00 | 0.00 | 60 | 1007.7 |
| 20260505095020 | 40 | 310 | 2.0 | 8.0 | 0.00 | 0.00 | 0.00 | 61 | 1007.7 |
| 20260505094532 | 40 | 0 | 2.0 | 7.0 | 0.00 | 0.00 | 0.00 | 60 | 1007.6 |
| 20260505094017 | 40 | 0 | 1.0 | 5.0 | 0.00 | 0.00 | 0.00 | 60 | 1007.6 |
| 20260505093518 | 40 | 275 | 2.0 | 8.0 | 0.00 | 0.00 | 0.00 | 60 | 1007.6 |
| 20260505093040 | 40 | 278 | 3.0 | 10.0 | 0.00 | 0.00 | 0.00 | 59 | 1007.5 |
| 20260505092519 | 41 | 267 | 4.0 | 11.0 | 0.00 | 0.00 | 0.00 | 59 | 1007.4 |
| 20260505092017 | 41 | 264 | 3.0 | 11.0 | 0.00 | 0.00 | 0.00 | 59 | 1007.3 |
| 20260505091544 | 41 | 301 | 3.0 | 11.0 | 0.00 | 0.00 | 0.00 | 58 | 1007.4 |
| 20260505091019 | 41 | 308 | 5.0 | 11.0 | 0.00 | 0.00 | 0.00 | 58 | 1007.3 |
| 20260505090517 | 41 | 275 | 3.0 | 9.0 | 0.00 | 0.00 | 0.00 | 58 | 1007.1 |
| 20260505090038 | 41 | 269 | 3.0 | 11.0 | 0.00 | 0.00 | 0.00 | 57 | 1007.0 |
| 20260505085517 | 41 | 284 | 3.0 | 12.0 | 0.00 | 0.00 | 0.00 | 57 | 1006.9 |
| 20260505085017 | 41 | 261 | 4.0 | 12.0 | 0.00 | 0.00 | 0.00 | 56 | 1006.7 |
| 20260505084535 | 41 | 338 | 4.0 | 9.0 | 0.00 | 0.00 | 0.00 | 57 | 1006.7 |
| 20260505084019 | 42 | 257 | 2.0 | 11.0 | 0.00 | 0.00 | 0.00 | 55 | 1006.7 |
| 20260505083516 | 42 | 280 | 3.0 | 11.0 | 0.00 | 0.00 | 0.00 | 55 | 1006.7 |
| 20260505083035 | 42 | 280 | 4.0 | 11.0 | 0.00 | 0.00 | 0.00 | 55 | 1006.7 |
| 20260505082517 | 42 | 290 | 3.0 | 13.0 | 0.00 | 0.00 | 0.00 | 54 | 1006.6 |
| 20260505082017 | 42 | 261 | 4.0 | 13.0 | 0.00 | 0.00 | 0.00 | 54 | 1006.6 |
| 20260505081537 | 42 | 276 | 5.0 | 13.0 | 0.00 | 0.00 | 0.00 | 54 | 1006.5 |
| 20260505081017 | 42 | 276 | 3.0 | 13.0 | 0.00 | 0.00 | 0.00 | 53 | 1006.4 |
| 20260505080516 | 42 | 270 | 4.0 | 12.0 | 0.00 | 0.00 | 0.00 | 52 | 1006.2 |
| 20260505080034 | 42 | 282 | 2.0 | 8.0 | 0.00 | 0.00 | 0.00 | 53 | 1006.3 |
| 20260505075516 | 43 | 273 | 3.0 | 11.0 | 0.00 | 0.00 | 0.00 | 52 | 1006.2 |
| 20260505075019 | 43 | 277 | 4.0 | 15.0 | 0.00 | 0.00 | 0.00 | 52 | 1006.2 |
| 20260505074532 | 43 | 282 | 5.0 | 15.0 | 0.00 | 0.00 | 0.00 | 52 | 1006.2 |
| 20260505074017 | 43 | 290 | 4.0 | 15.0 | 0.00 | 0.00 | 0.00 | 52 | 1006.1 |
| 20260505073517 | 43 | 301 | 3.0 | 13.0 | 0.00 | 0.00 | 0.00 | 52 | 1006.1 |
| 20260505073034 | 43 | 326 | 4.0 | 13.0 | 0.00 | 0.00 | 0.00 | 53 | 1006.1 |
| 20260505072521 | 43 | 238 | 5.0 | 9.0 | 0.00 | 0.00 | 0.00 | 52 | 1006.1 |
| 20260505072019 | 43 | 281 | 2.0 | 7.0 | 0.00 | 0.00 | 0.00 | 52 | 1005.9 |
| 20260505071545 | 43 | 287 | 3.0 | 8.0 | 0.00 | 0.00 | 0.00 | 52 | 1006.1 |
| 20260505071017 | 43 | 265 | 3.0 | 8.0 | 0.00 | 0.00 | 0.00 | 52 | 1006.1 |
| 20260505070521 | 44 | 259 | 2.0 | 8.0 | 0.00 | 0.00 | 0.00 | 51 | 1006.2 |
| 20260505070039 | 44 | 273 | 3.0 | 10.0 | 0.00 | 0.00 | 0.00 | 50 | 1006.1 |
| 20260505065520 | 44 | 253 | 3.0 | 13.0 | 0.00 | 0.00 | 0.00 | 50 | 1006.2 |
| 20260505065021 | 44 | 322 | 4.0 | 13.0 | 0.00 | 0.00 | 0.00 | 50 | 1006.1 |
| 20260505064535 | 44 | 311 | 5.0 | 13.0 | 0.00 | 0.00 | 0.00 | 50 | 1006.1 |
| 20260505064016 | 44 | 261 | 2.0 | 13.0 | 0.00 | 0.00 | 0.00 | 50 | 1006.1 |
| 20260505063516 | 44 | 284 | 5.0 | 13.0 | 0.00 | 0.00 | 0.00 | 51 | 1006.2 |
| 20260505063039 | 44 | 271 | 4.0 | 11.0 | 0.00 | 0.00 | 0.00 | 52 | 1006.2 |
| 20260505062526 | 44 | 43 | 3.0 | 12.0 | 0.00 | 0.00 | 0.00 | 52 | 1006.2 |
| 20260505062020 | 43 | 316 | 4.0 | 12.0 | 0.00 | 0.00 | 0.00 | 52 | 1006.2 |
| 20260505061602 | 43 | 279 | 5.0 | 11.0 | 0.00 | 0.00 | 0.00 | 53 | 1006.4 |
| 20260505061020 | 43 | 282 | 3.0 | 11.0 | 0.00 | 0.00 | 0.00 | 54 | 1006.2 |
| 20260505060524 | 42 | 232 | 4.0 | 11.0 | 0.00 | 0.00 | 0.00 | 55 | 1006.1 |
| 20260505060032 | 42 | 282 | 2.0 | 10.0 | 0.00 | 0.00 | 0.00 | 56 | 1006.1 |
| 20260505055524 | 42 | 273 | 2.0 | 10.0 | 0.00 | 0.00 | 0.00 | 57 | 1006.1 |
| 20260505055020 | 42 | 280 | 2.0 | 8.0 | 0.00 | 0.00 | 0.00 | 57 | 1006.2 |
| 20260505054536 | 42 | 242 | 2.0 | 8.0 | 0.00 | 0.00 | 0.00 | 57 | 1006.2 |
| 20260505054021 | 42 | 228 | 1.0 | 8.0 | 0.00 | 0.00 | 0.00 | 58 | 1006.1 |
| 20260505053517 | 42 | 226 | 2.0 | 8.0 | 0.00 | 0.00 | 0.00 | 58 | 1006.0 |
| 20260505053039 | 42 | 256 | 1.0 | 6.0 | 0.00 | 0.00 | 0.00 | 58 | 1005.9 |
| 20260505052521 | 42 | 255 | 1.0 | 6.0 | 0.00 | 0.00 | 0.00 | 58 | 1006.0 |
| 20260505052017 | 41 | 265 | 1.0 | 6.0 | 0.00 | 0.00 | 0.00 | 59 | 1005.9 |
| 20260505051557 | 41 | 266 | 1.0 | 7.0 | 0.00 | 0.00 | 0.00 | 59 | 1005.9 |
| 20260505051021 | 41 | 274 | 2.0 | 8.0 | 0.00 | 0.00 | 0.00 | 60 | 1005.9 |
| 20260505050517 | 41 | 262 | 2.0 | 8.0 | 0.00 | 0.00 | 0.00 | 60 | 1005.8 |